• In Italy
  • List of Countries
  • For 7 days
  • Water Temperature
  • Satellite Maps
  • Weather Map
  • Weather Widgets
  • user-avatar
    Login

    Hourly Weather Braga

    Today, 25 September, Tuesday

    Time Temperature Precipitation Wind Pressure Humidity
    00:00 +24°C° 0 mm 2 mps 754 mmHg 52%
    01:00 +22°C° 0 mm 3 mps 754 mmHg 51%
    02:00 +22°C° 0 mm 3 mps 754 mmHg 49%
    03:00 +21°C° 0 mm 3 mps 754 mmHg 47%
    04:00 +20°C° 0 mm 3 mps 754 mmHg 45%
    05:00 +20°C° 0 mm 3 mps 754 mmHg 44%
    06:00 +21°C° 0 mm 3 mps 755 mmHg 40%
    07:00 +22°C° 0 mm 3 mps 755 mmHg 36%
    08:00 +24°C° 0 mm 3 mps 755 mmHg 32%
    09:00 +27°C° 0 mm 2 mps 754 mmHg 29%
    10:00 +29°C° 0 mm 2 mps 754 mmHg 26%
    11:00 +31°C° 0 mm 2 mps 754 mmHg 23%
    12:00 +32°C° 0 mm 2 mps 754 mmHg 23%
    13:00 +34°C° 0 mm 2 mps 754 mmHg 22%
    14:00 +35°C° 0 mm 2 mps 753 mmHg 22%
    15:00 +32°C° 0 mm 2 mps 753 mmHg 26%
    16:00 +30°C° 0 mm 2 mps 753 mmHg 30%
    17:00 +29°C° 0 mm 2 mps 753 mmHg 35%
    18:00 +27°C° 0 mm 2 mps 753 mmHg 35%
    19:00 +26°C° 0 mm 2 mps 753 mmHg 35%
    20:00 +25°C° 0 mm 2 mps 753 mmHg 35%
    21:00 +24°C° 0 mm 2 mps 753 mmHg 34%
    22:00 +24°C° 0 mm 2 mps 754 mmHg 33%
    23:00 +24°C° 0 mm 2 mps 754 mmHg 32%

    Tomorrow, 26 September, Wednesday

    Time Temperature Precipitation Wind Pressure Humidity
    00:00 +23°C° 0 mm 2 mps 754 mmHg 31%
    01:00 +23°C° 0 mm 2 mps 754 mmHg 30%
    02:00 +21°C° 0 mm 2 mps 754 mmHg 29%
    03:00 +21°C° 0 mm 2 mps 754 mmHg 30%
    04:00 +20°C° 0 mm 2 mps 754 mmHg 31%
    05:00 +20°C° 0 mm 2 mps 754 mmHg 32%
    06:00 +23°C° 0 mm 2 mps 755 mmHg 31%
    07:00 +25°C° 0 mm 2 mps 755 mmHg 31%
    08:00 +26°C° 0 mm 2 mps 755 mmHg 30%
    09:00 +29°C° 0 mm 2 mps 755 mmHg 28%
    10:00 +31°C° 0 mm 2 mps 755 mmHg 26%
    11:00 +34°C° 0 mm 3 mps 756 mmHg 23%
    12:00 +34°C° 0 mm 3 mps 755 mmHg 25%
    13:00 +34°C° 0 mm 3 mps 755 mmHg 26%
    14:00 +34°C° 0 mm 2 mps 755 mmHg 27%
    15:00 +31°C° 0 mm 2 mps 755 mmHg 33%
    16:00 +29°C° 0 mm 1 mps 756 mmHg 40%
    17:00 +28°C° 0 mm 1 mps 756 mmHg 46%
    18:00 +27°C° 0 mm 1 mps 756 mmHg 48%
    19:00 +26°C° 0 mm 1 mps 757 mmHg 50%
    20:00 +25°C° 0 mm 1 mps 757 mmHg 52%
    21:00 +24°C° 0.1 mm 1 mps 757 mmHg 52%
    22:00 +24°C° 0.1 mm 1 mps 757 mmHg 53%
    23:00 +24°C° 0.1 mm 1 mps 758 mmHg 53%

    Day after tomorrow, 27 September, Thursday

    Time Temperature Precipitation Wind Pressure Humidity
    00:00 +24°C° 0 mm 1 mps 757 mmHg 54%
    01:00 +24°C° 0 mm 1 mps 757 mmHg 55%
    02:00 +23°C° 0 mm 1 mps 757 mmHg 56%
    03:00 +23°C° 0.1 mm 1 mps 757 mmHg 58%
    04:00 +23°C° 0.1 mm 1 mps 757 mmHg 60%
    05:00 +23°C° 0.1 mm 1 mps 757 mmHg 62%
    06:00 +25°C° 0.2 mm 1 mps 758 mmHg 58%
    07:00 +27°C° 0.2 mm 1 mps 758 mmHg 54%
    08:00 +28°C° 0.2 mm 1 mps 758 mmHg 51%
    09:00 +30°C° 0 mm 1 mps 758 mmHg 45%
    10:00 +32°C° 0 mm 1 mps 758 mmHg 40%
    11:00 +35°C° 0 mm 2 mps 758 mmHg 35%
    12:00 +35°C° 0 mm 2 mps 758 mmHg 35%
    13:00 +34°C° 0 mm 2 mps 757 mmHg 35%
    14:00 +34°C° 0 mm 3 mps 757 mmHg 35%
    15:00 +31°C° 0.2 mm 3 mps 757 mmHg 42%
    16:00 +30°C° 0.2 mm 2 mps 757 mmHg 49%
    17:00 +28°C° 0.2 mm 2 mps 756 mmHg 55%
    18:00 +27°C° 0.6 mm 2 mps 757 mmHg 61%
    19:00 +25°C° 0.6 mm 2 mps 757 mmHg 67%
    20:00 +24°C° 0.6 mm 2 mps 757 mmHg 72%
    21:00 +24°C° 0.1 mm 2 mps 757 mmHg 73%
    22:00 +24°C° 0.1 mm 2 mps 757 mmHg 74%
    23:00 +23°C° 0.1 mm 2 mps 756 mmHg 74%

    28 September, Friday

    Time Temperature Precipitation Wind Pressure Humidity
    00:00 +23°C° 0.1 mm 2 mps 756 mmHg 74%
    01:00 +23°C° 0.1 mm 2 mps 756 mmHg 75%
    02:00 +23°C° 0.1 mm 1 mps 755 mmHg 75%
    03:00 +22°C° 0 mm 1 mps 755 mmHg 75%
    04:00 +22°C° 0 mm 1 mps 755 mmHg 75%
    05:00 +22°C° 0 mm 1 mps 755 mmHg 75%
    06:00 +24°C° 0 mm 1 mps 755 mmHg 68%
    07:00 +26°C° 0 mm 1 mps 755 mmHg 62%
    08:00 +28°C° 0 mm 1 mps 755 mmHg 55%
    09:00 +29°C° 0 mm 1 mps 755 mmHg 50%
    10:00 +31°C° 0 mm 2 mps 755 mmHg 45%
    11:00 +32°C° 0 mm 2 mps 754 mmHg 39%
    12:00 +33°C° 0 mm 3 mps 754 mmHg 39%
    13:00 +33°C° 0 mm 3 mps 753 mmHg 39%
    14:00 +33°C° 0 mm 3 mps 753 mmHg 40%
    15:00 +30°C° 0 mm 3 mps 752 mmHg 47%
    16:00 +28°C° 0 mm 3 mps 752 mmHg 54%
    17:00 +27°C° 0 mm 3 mps 752 mmHg 61%
    18:00 +25°C° 0 mm 2 mps 752 mmHg 66%
    19:00 +24°C° 0 mm 2 mps 752 mmHg 71%
    20:00 +23°C° 0 mm 2 mps 753 mmHg 76%
    21:00 +22°C° 0 mm 1 mps 752 mmHg 77%
    22:00 +22°C° 0 mm 1 mps 752 mmHg 78%
    23:00 +22°C° 0 mm 1 mps 752 mmHg 79%

    29 September, Saturday

    Time Temperature Precipitation Wind Pressure Humidity
    00:00 +21°C° 0 mm 1 mps 751 mmHg 80%
    01:00 +21°C° 0 mm 1 mps 751 mmHg 81%
    02:00 +21°C° 0 mm 1 mps 750 mmHg 81%
    03:00 +21°C° 0 mm 1 mps 750 mmHg 82%
    04:00 +20°C° 0 mm 1 mps 750 mmHg 82%
    05:00 +20°C° 0 mm 1 mps 750 mmHg 82%
    06:00 +22°C° 0 mm 1 mps 750 mmHg 75%
    07:00 +24°C° 0 mm 1 mps 750 mmHg 67%
    08:00 +26°C° 0 mm 1 mps 750 mmHg 59%
    09:00 +28°C° 0 mm 1 mps 750 mmHg 53%
    10:00 +29°C° 0 mm 2 mps 750 mmHg 46%
    11:00 +31°C° 0 mm 2 mps 749 mmHg 40%
    12:00 +31°C° 0 mm 2 mps 749 mmHg 39%
    13:00 +31°C° 0 mm 3 mps 748 mmHg 38%
    14:00 +30°C° 0 mm 3 mps 748 mmHg 37%
    15:00 +29°C° 0 mm 3 mps 748 mmHg 44%
    16:00 +27°C° 0 mm 2 mps 748 mmHg 51%
    17:00 +25°C° 0 mm 2 mps 748 mmHg 57%
    18:00 +24°C° 0 mm 2 mps 748 mmHg 63%
    19:00 +23°C° 0 mm 1 mps 749 mmHg 68%
    20:00 +21°C° 0 mm 1 mps 749 mmHg 73%
    21:00 +21°C° 0 mm 1 mps 749 mmHg 76%
    22:00 +20°C° 0 mm 1 mps 749 mmHg 78%
    23:00 +20°C° 0 mm 1 mps 749 mmHg 80%

    30 September, Sunday

    Time Temperature Precipitation Wind Pressure Humidity
    00:00 +20°C° 0 mm 1 mps 749 mmHg 80%
    01:00 +19°C° 0 mm 1 mps 749 mmHg 81%
    02:00 +19°C° 0 mm 1 mps 748 mmHg 81%
    03:00 +19°C° 0 mm 1 mps 748 mmHg 81%
    04:00 +19°C° 0 mm 1 mps 749 mmHg 81%
    05:00 +17°C° 0 mm 2 mps 749 mmHg 80%
    06:00 +20°C° 0 mm 1 mps 749 mmHg 72%
    07:00 +22°C° 0 mm 1 mps 749 mmHg 64%
    08:00 +24°C° 0 mm 1 mps 749 mmHg 56%
    09:00 +26°C° 0 mm 2 mps 749 mmHg 49%
    10:00 +28°C° 0 mm 2 mps 749 mmHg 42%
    11:00 +29°C° 0 mm 2 mps 749 mmHg 35%
    12:00 +29°C° 0 mm 3 mps 749 mmHg 34%
    13:00 +29°C° 0 mm 3 mps 749 mmHg 34%
    14:00 +29°C° 0 mm 3 mps 748 mmHg 34%
    15:00 +28°C° 0 mm 3 mps 748 mmHg 40%
    16:00 +26°C° 0 mm 3 mps 748 mmHg 46%
    17:00 +24°C° 0 mm 2 mps 749 mmHg 52%
    18:00 +23°C° 0 mm 2 mps 749 mmHg 57%
    19:00 +21°C° 0 mm 2 mps 749 mmHg 62%
    20:00 +20°C° 0 mm 2 mps 750 mmHg 66%
    21:00 +19°C° 0 mm 3 mps 749 mmHg 69%
    22:00 +19°C° 0 mm 3 mps 749 mmHg 71%
    23:00 +18°C° 0 mm 3 mps 749 mmHg 74%
    Show more